Starlink 31397

operational
NORAD ID: 59540 Int'l Des: 2024-074 Owner: SPXS Country: US Constellation: starlink
LEOCIRCULAR

关于 Starlink 31397

正在加载描述...

实时位置

正在加载3D地球...

即将过境

高度历史

Altitude vs Time

uPlot chart will show altitude changes over time

两行轨道根数

1 59540U 24074G 25302.86702894 -.00000957 00000-0 -25241-4 0 9997
2 59540 43.0056 2.6049 0000879 293.0241 67.0518 15.27581896 86002
Epoch: Oct 29, 2025 • Age: 25 hours

当前状态

高度 482.5 km
速度 7.63 km/s
星下点 21.38°N, 11°E
发射日期 Apr 18, 2024
运行时间 1.5 years
类型 internet

技术详情

分类 Payload
质量 730.00 kg
干质量 700.00 kg
总质量 730.00 kg
长度 0.30 m
直径 4.10 m
跨度 29.00 m
形状 Box + pan
制造商 SPXS
平台类型 Starlink V2M
阶段状态 In Orbit
所有者/国家 SPXS/US

大型星座

Loading constellations...